TAM8141 LPPT-LEMD

Flight info

Callsign TAM8141
Flight time 0h 48m
Altitude 32000
Route ORVED DCT OGERO DCT ROLDO DCT RUKER Z409 TLD
Aircraft B77W/H-SDE1E2E3FGHIJ2J3J4J5M1RWXY/LB1D1

Departure

Time 2026-05-08 02:17
Airport Lisbon Humberto Delgado Airport (LPPT)

Arrival

Time 2026-05-08 03:05
Airport Adolfo Suárez Madrid–Barajas Airport (LEMD)
Time Latitude Longitude Altitude Speed Heading
2026-05-08 02:03 38.77488 -9.13174 356 ft 0 kts 77°
2026-05-08 02:10 38.77486 -9.13187 356 ft 3 kts 76°
2026-05-08 02:10 38.77482 -9.13209 359 ft 2 kts 80°
2026-05-08 02:10 38.77479 -9.13227 362 ft 2 kts 85°
2026-05-08 02:10 38.77476 -9.13240 359 ft 2 kts 96°
2026-05-08 02:11 38.77473 -9.13252 363 ft 1 kts 118°
2026-05-08 02:11 38.77473 -9.13261 358 ft 1 kts 63°
2026-05-08 02:11 38.77472 -9.13268 360 ft 2 kts 101°
2026-05-08 02:11 38.77474 -9.13282 362 ft 2 kts 132°
2026-05-08 02:12 38.77480 -9.13289 365 ft 0 kts 173°
2026-05-08 02:13 38.77420 -9.13278 361 ft 15 kts 171°
2026-05-08 02:13 38.77330 -9.13302 362 ft 17 kts 239°
2026-05-08 02:13 38.77301 -9.13477 360 ft 21 kts 260°
2026-05-08 02:14 38.77274 -9.13652 360 ft 18 kts 258°
2026-05-08 02:14 38.77245 -9.13811 361 ft 18 kts 246°
2026-05-08 02:14 38.77139 -9.13896 361 ft 18 kts 201°
2026-05-08 02:14 38.77022 -9.13960 364 ft 18 kts 202°
2026-05-08 02:15 38.76903 -9.14022 363 ft 18 kts 202°
2026-05-08 02:15 38.76785 -9.14084 363 ft 18 kts 203°
2026-05-08 02:15 38.76667 -9.14149 360 ft 18 kts 204°
2026-05-08 02:15 38.76568 -9.14206 364 ft 11 kts 207°
2026-05-08 02:16 38.76538 -9.14289 360 ft 11 kts 276°
2026-05-08 02:16 38.76566 -9.14381 364 ft 11 kts 307°
2026-05-08 02:16 38.76689 -9.14362 360 ft 32 kts 22°
2026-05-08 02:16 38.77049 -9.14172 367 ft 95 kts 23°
2026-05-08 02:17 38.77932 -9.13704 368 ft 177 kts 22°
2026-05-08 02:17 38.79169 -9.13050 845 ft 198 kts 23°
2026-05-08 02:17 38.80433 -9.12321 1864 ft 201 kts 25°
2026-05-08 02:17 38.81685 -9.11480 2635 ft 210 kts 29°
2026-05-08 02:18 38.83033 -9.10477 2974 ft 239 kts 30°
2026-05-08 02:18 38.84528 -9.09329 3466 ft 258 kts 30°
2026-05-08 02:18 38.86095 -9.08138 4310 ft 267 kts 29°
2026-05-08 02:18 38.87717 -9.06914 5202 ft 273 kts 29°
2026-05-08 02:19 38.89292 -9.05535 6005 ft 279 kts 45°
2026-05-08 02:19 38.90414 -9.03476 6798 ft 284 kts 64°
2026-05-08 02:19 38.91277 -9.01191 7696 ft 286 kts 67°
2026-05-08 02:19 38.92130 -8.98864 8597 ft 290 kts 68°
2026-05-08 02:20 38.92992 -8.96508 9460 ft 294 kts 69°
2026-05-08 02:20 38.93865 -8.94118 9916 ft 296 kts 69°
2026-05-08 02:20 38.94755 -8.91701 9912 ft 301 kts 69°
2026-05-08 02:20 38.95667 -8.89231 10069 ft 316 kts 69°
2026-05-08 02:21 38.96649 -8.86563 10302 ft 344 kts 69°
2026-05-08 02:21 38.97713 -8.83678 10601 ft 368 kts 69°
2026-05-08 02:21 38.98834 -8.80660 11356 ft 379 kts 69°
2026-05-08 02:21 38.99986 -8.77570 12319 ft 386 kts 69°
2026-05-08 02:22 39.00954 -8.74370 13318 ft 386 kts 80°
2026-05-08 02:22 39.01410 -8.70984 14312 ft 384 kts 91°
2026-05-08 02:22 39.01440 -8.67549 15252 ft 387 kts 97°
2026-05-08 02:22 39.01317 -8.64064 16120 ft 392 kts 97°
2026-05-08 02:23 39.01401 -8.60601 16828 ft 409 kts 87°
2026-05-08 02:23 39.02045 -8.56867 17718 ft 423 kts 76°
2026-05-08 02:23 39.03199 -8.53351 18564 ft 434 kts 66°
2026-05-08 02:23 39.04856 -8.50036 19354 ft 444 kts 56°
2026-05-08 02:24 39.06834 -8.47023 20162 ft 452 kts 51°
2026-05-08 02:24 39.09020 -8.43993 20910 ft 459 kts 50°
2026-05-08 02:24 39.11141 -8.41101 21605 ft 466 kts 50°
2026-05-08 02:24 39.13389 -8.37973 22328 ft 472 kts 51°
2026-05-08 02:25 39.15547 -8.34833 23062 ft 476 kts 55°
2026-05-08 02:25 39.17492 -8.31378 23735 ft 478 kts 61°
2026-05-08 02:25 39.19174 -8.27680 24393 ft 478 kts 67°
2026-05-08 02:25 39.20616 -8.23832 25082 ft 477 kts 71°
2026-05-08 02:26 39.21921 -8.19896 25754 ft 479 kts 72°
2026-05-08 02:26 39.23185 -8.15910 26352 ft 483 kts 73°
2026-05-08 02:26 39.24465 -8.11882 26935 ft 487 kts 72°
2026-05-08 02:26 39.25779 -8.07836 27516 ft 491 kts 72°
2026-05-08 02:27 39.27122 -8.03767 28093 ft 495 kts 72°
2026-05-08 02:27 39.28464 -7.99672 28694 ft 496 kts 73°
2026-05-08 02:27 39.29707 -7.95527 29473 ft 493 kts 75°
2026-05-08 02:27 39.30874 -7.91391 30294 ft 488 kts 75°
2026-05-08 02:28 39.32015 -7.87288 30991 ft 486 kts 75°
2026-05-08 02:28 39.33165 -7.83182 31613 ft 485 kts 75°
2026-05-08 02:28 39.34327 -7.79078 31942 ft 490 kts 75°
2026-05-08 02:28 39.35511 -7.74931 31906 ft 492 kts 75°
2026-05-08 02:29 39.37872 -7.66710 31899 ft 486 kts 75°
2026-05-08 02:29 39.40415 -7.58593 31906 ft 489 kts 71°
2026-05-08 02:30 39.43219 -7.50567 31905 ft 490 kts 70°
2026-05-08 02:30 39.46009 -7.42563 31907 ft 491 kts 71°
2026-05-08 02:31 39.48771 -7.34473 31903 ft 492 kts 71°
2026-05-08 02:31 39.51518 -7.26343 31901 ft 493 kts 71°
2026-05-08 02:32 39.54267 -7.18181 31893 ft 494 kts 71°
2026-05-08 02:32 39.57015 -7.10005 31885 ft 495 kts 71°
2026-05-08 02:33 39.59758 -7.01825 31898 ft 495 kts 71°
2026-05-08 02:33 39.62495 -6.93641 31886 ft 494 kts 71°
2026-05-08 02:34 39.65221 -6.85465 31891 ft 493 kts 71°
2026-05-08 02:34 39.67938 -6.77291 31892 ft 493 kts 71°
2026-05-08 02:35 39.70646 -6.69120 31887 ft 493 kts 71°
2026-05-08 02:35 39.73351 -6.60935 31890 ft 493 kts 71°
2026-05-08 02:36 39.76050 -6.52742 31885 ft 494 kts 71°
2026-05-08 02:36 39.78739 -6.44505 31879 ft 494 kts 73°
2026-05-08 02:37 39.80602 -6.35981 31880 ft 488 kts 84°
2026-05-08 02:37 39.81426 -6.27256 31884 ft 485 kts 89°
2026-05-08 02:38 39.82136 -6.18573 31881 ft 487 kts 89°
2026-05-08 02:38 39.82882 -6.09822 31874 ft 488 kts 88°
2026-05-08 02:39 39.83647 -6.01041 31863 ft 489 kts 88°
2026-05-08 02:39 39.84411 -5.92243 31877 ft 489 kts 88°
2026-05-08 02:40 39.85167 -5.83437 31883 ft 490 kts 88°
2026-05-08 02:40 39.85895 -5.74876 31876 ft 491 kts 88°
2026-05-08 02:41 39.86640 -5.66016 31877 ft 493 kts 89°
2026-05-08 02:41 39.87382 -5.57137 31888 ft 494 kts 88°
2026-05-08 02:42 39.88115 -5.48239 31890 ft 495 kts 89°
2026-05-08 02:42 39.88837 -5.39327 31868 ft 494 kts 89°
2026-05-08 02:43 39.89196 -5.34879 31530 ft 494 kts 88°
2026-05-08 02:43 39.89552 -5.30443 31010 ft 491 kts 88°
2026-05-08 02:43 39.89906 -5.26041 30493 ft 486 kts 88°
2026-05-08 02:43 39.90249 -5.21743 29991 ft 482 kts 88°
2026-05-08 02:44 39.90592 -5.17419 29368 ft 478 kts 88°
2026-05-08 02:44 39.90930 -5.13138 28833 ft 473 kts 88°
2026-05-08 02:44 39.91263 -5.08897 28297 ft 468 kts 88°
2026-05-08 02:44 39.91590 -5.04703 27758 ft 463 kts 88°
2026-05-08 02:45 39.91912 -5.00555 27239 ft 459 kts 88°
2026-05-08 02:45 39.92231 -4.96430 26723 ft 455 kts 88°
2026-05-08 02:45 39.92544 -4.92346 26224 ft 451 kts 88°
2026-05-08 02:45 39.92855 -4.88289 25712 ft 448 kts 88°
2026-05-08 02:46 39.93161 -4.84272 25219 ft 445 kts 88°
2026-05-08 02:46 39.93464 -4.80277 24726 ft 442 kts 87°
2026-05-08 02:46 39.93764 -4.76302 24231 ft 439 kts 87°
2026-05-08 02:46 39.94061 -4.72362 23743 ft 437 kts 87°
2026-05-08 02:47 39.94356 -4.68430 23200 ft 434 kts 87°
2026-05-08 02:47 39.94647 -4.64529 22653 ft 431 kts 87°
2026-05-08 02:47 39.94934 -4.60659 22157 ft 427 kts 88°
2026-05-08 02:47 39.95218 -4.56823 21670 ft 424 kts 88°
2026-05-08 02:48 39.95497 -4.53019 21190 ft 421 kts 88°
2026-05-08 02:48 39.95775 -4.49232 20726 ft 417 kts 88°
2026-05-08 02:48 39.95993 -4.46244 20358 ft 421 kts 88°
2026-05-08 02:48 39.96272 -4.42393 19900 ft 432 kts 88°
2026-05-08 02:49 39.96548 -4.38462 19401 ft 438 kts 90°
2026-05-08 02:49 39.96319 -4.34538 18896 ft 436 kts 108°
2026-05-08 02:49 39.95179 -4.30886 18431 ft 435 kts 125°
2026-05-08 02:49 39.93379 -4.27774 18060 ft 426 kts 134°
2026-05-08 02:50 39.91468 -4.24839 17457 ft 423 kts 134°
2026-05-08 02:50 39.89582 -4.21924 16866 ft 417 kts 134°
2026-05-08 02:50 39.87753 -4.19036 16395 ft 409 kts 133°
2026-05-08 02:50 39.85967 -4.16184 15870 ft 403 kts 133°
2026-05-08 02:51 39.84249 -4.13334 15230 ft 398 kts 127°
2026-05-08 02:51 39.83106 -4.10055 14721 ft 402 kts 107°
2026-05-08 02:51 39.82677 -4.06547 14274 ft 395 kts 100°
2026-05-08 02:51 39.82285 -4.03030 13796 ft 391 kts 102°
2026-05-08 02:52 39.81848 -3.99552 13285 ft 388 kts 102°
2026-05-08 02:52 39.81679 -3.96120 12824 ft 379 kts 85°
2026-05-08 02:52 39.82427 -3.92861 12432 ft 375 kts 65°
2026-05-08 02:52 39.83870 -3.90076 11991 ft 370 kts 48°
2026-05-08 02:53 39.85687 -3.87687 11590 ft 371 kts 45°
2026-05-08 02:53 39.87530 -3.85340 11160 ft 369 kts 45°
2026-05-08 02:53 39.89345 -3.82986 10722 ft 367 kts 46°
2026-05-08 02:53 39.91109 -3.80656 10600 ft 356 kts 46°
2026-05-08 02:54 39.92818 -3.78386 10439 ft 347 kts 46°
2026-05-08 02:54 39.94483 -3.76165 10284 ft 338 kts 46°
2026-05-08 02:54 39.96106 -3.73999 10141 ft 330 kts 47°
2026-05-08 02:54 39.97690 -3.71884 9975 ft 322 kts 47°
2026-05-08 02:55 39.99208 -3.69858 9782 ft 307 kts 47°
2026-05-08 02:55 40.02074 -3.66031 9055 ft 289 kts 47°
2026-05-08 02:55 40.03471 -3.64162 8739 ft 288 kts 47°
2026-05-08 02:56 40.04871 -3.62286 8429 ft 288 kts 47°
2026-05-08 02:56 40.06270 -3.60411 8105 ft 288 kts 47°
2026-05-08 02:56 40.07662 -3.58543 7808 ft 287 kts 47°
2026-05-08 02:56 40.09046 -3.56686 7605 ft 281 kts 47°
2026-05-08 02:57 40.10371 -3.54907 7345 ft 268 kts 47°
2026-05-08 02:57 40.11654 -3.53183 6912 ft 262 kts 47°
2026-05-08 02:57 40.12922 -3.51479 6501 ft 262 kts 47°
2026-05-08 02:57 40.14164 -3.49810 6410 ft 255 kts 47°
2026-05-08 02:58 40.15402 -3.48144 6165 ft 254 kts 47°
2026-05-08 02:58 40.16212 -3.47055 6093 ft 251 kts 47°
2026-05-08 02:58 40.17432 -3.45443 5844 ft 255 kts 45°
2026-05-08 02:58 40.19214 -3.43338 5416 ft 259 kts 43°
2026-05-08 02:59 40.20104 -3.42303 5198 ft 259 kts 44°
2026-05-08 02:59 40.21482 -3.40857 5046 ft 249 kts 34°
2026-05-08 02:59 40.23000 -3.39717 4530 ft 256 kts 30°
2026-05-08 02:59 40.24569 -3.38669 4272 ft 249 kts 22°
2026-05-08 03:00 40.26257 -3.38392 4071 ft 244 kts 355°
2026-05-08 03:00 40.27876 -3.38680 4050 ft 228 kts 353°
2026-05-08 03:00 40.29408 -3.38954 4024 ft 215 kts 352°
2026-05-08 03:00 40.30745 -3.39619 4032 ft 206 kts 323°
2026-05-08 03:01 40.31909 -3.40814 4023 ft 216 kts 322°
2026-05-08 03:01 40.33088 -3.41989 4018 ft 210 kts 322°
2026-05-08 03:01 40.34236 -3.43140 4012 ft 206 kts 322°
2026-05-08 03:01 40.35360 -3.44277 4019 ft 202 kts 322°
2026-05-08 03:02 40.36463 -3.45396 4028 ft 201 kts 322°
2026-05-08 03:02 40.37549 -3.46503 4015 ft 193 kts 322°
2026-05-08 03:02 40.38588 -3.47552 3938 ft 189 kts 322°
2026-05-08 03:02 40.39613 -3.48594 3649 ft 185 kts 322°
2026-05-08 03:03 40.40636 -3.49631 3436 ft 181 kts 323°
2026-05-08 03:03 40.41608 -3.50620 3196 ft 175 kts 323°
2026-05-08 03:03 40.42539 -3.51565 2924 ft 162 kts 324°
2026-05-08 03:03 40.43384 -3.52423 2682 ft 146 kts 324°
2026-05-08 03:04 40.44173 -3.53216 2422 ft 141 kts 324°
2026-05-08 03:04 40.44973 -3.54023 2258 ft 147 kts 322°
2026-05-08 03:04 40.45769 -3.54843 2106 ft 145 kts 325°
2026-05-08 03:04 40.46564 -3.55645 2001 ft 145 kts 323°
2026-05-08 03:05 40.47300 -3.56391 1990 ft 115 kts 322°
2026-05-08 03:05 40.47779 -3.56877 1988 ft 67 kts 323°
2026-05-08 03:05 40.48084 -3.57125 1989 ft 35 kts 341°
2026-05-08 03:05 40.48255 -3.57191 1988 ft 17 kts 345°
2026-05-08 03:06 40.48369 -3.57222 1989 ft 17 kts 350°
2026-05-08 03:06 40.48486 -3.57225 1988 ft 17 kts 356°
2026-05-08 03:06 40.48602 -3.57238 1985 ft 17 kts 356°
2026-05-08 03:06 40.48718 -3.57231 1987 ft 17 kts 22°
2026-05-08 03:07 40.48768 -3.57101 1988 ft 17 kts 84°
2026-05-08 03:07 40.48847 -3.57009 1985 ft 17 kts
2026-05-08 03:07 40.48965 -3.57007 1986 ft 17 kts 359°
2026-05-08 03:07 40.49055 -3.56941 1987 ft 16 kts 77°
2026-05-08 03:08 40.49057 -3.56872 1988 ft 0 kts 91°